loading
|

TITAN 3C TRANSTAGE R/B, 2770

Orbit data source: Space-Track

TITAN 3C TRANSTAGE R/B, 2770 is space debris in HEO originally from a launch on Fri, 28 Apr 1967 UTC launched from the Air Force Eastern Test Range (AFETR). Debris objects in space refer to the collection of defunct objects orbiting the Earth. Examples of debris include non-operational satellites, rocket bodies, and fragments generated from explosions, collisions, or faulty payload assembly.

Loading next visibility...
Loading greatness...
TITAN 3C TRANSTAGE R/B details
Identifier
2770, 1967-040F
Orbit
HEO
Last TLE updatein 20 hours
Origin
Flag of USUSAF SSD (US)
ManufacturerMartin Marietta
MissionSpacecraft
Bus & MotorTRANSTAGE, Unknown motor
Mass3,103 kg wet, 3,103 kg dry
Launch date (UTC)
1967-04-28 (57 years ago)
Launch vehicleUnknown
Launch site
Air Force Eastern Test Range (AFETR)
Object type
Payload
Rocket body
Debris
Shape & HBRCyl + 2 Nozzle, 4.6 m
Radar Cross Section14.974 m², Large (>1 m²)

Expand to show TLE details & history

TLE from in 20 hours
0 TITAN 3C TRANSTAGE R/B
1 02770U 67040F   24279.87517323 -.00000832  00000-0  00000-0 0  9997
2 02770  17.8345 226.8059 7882686 319.6402 359.8917  0.50947585 20173
Epoch: 2024-10-05T21:00Z
Definitive object data (Epoch: 2024-10-05T21:00:14.967Z)
Latitude-12.49371°
Longitude-146.49667°
Altitude7,398.431 km
Speed7.201 km/s
True Right ascension12h 14m 21s
True Declination-12° 27' 22"
Sunlit
Object was in daylight at TLE epoch
Predictive object data (real-time)
Latitude10.09466°
Longitude42.99435°
Altitude110,408.97 km
Speed0.898 km/s
Apparent Right ascension01h 02m 05s
Apparent Declination8° 07' 14"
Sunlit
Object is in daylight
Predictive observer data (real-time)
Local Sidereal Time19:01:58
Azimuth83.735° E
Elevation5.177°
Doppler factor1
Orbital elements
Apogee112,044.632 km
Perigee7,643.145 km
Semi-major axis66,222.026 km
Eccentricity0.7882686
Inclination17.8345°
RAAN226.8059°
Arg. of periapsis319.6402°
True anomaly358.51364°
Mean anomaly359.8917°
Eccentric anomaly359.48853°
Mean motion0.12736 °/min
BSTARUnknown
Period2826.59 mins
No data available

TITAN 3C TRANSTAGE R/B Visibility forecast

Observer location: 39.9160978°, -105.1181434

TITAN 3C TRANSTAGE R/B is not visible in the next 10 days
Span
Click to sort rows by Start time (UTC) header in descending order
Start Az.
Max El. time (UTC)
Max El. Az.
Max El.
End time (UTC)
End Az.